Location: Munderkingen
(48.2395°N, 9.6433°E)
Time: 10:57:03
(UTC+02:00)

ISS - Visible Passes

Search period start: 16 July 2018 00:00
Search period end: 26 July 2018 00:00
Orbit: 402 x 408 km, 51.6° (Epoch: 16 July)

Date Brightness Start Highest point End Pass type
(mag) Time Alt. Az. Time Alt. Az. Time Alt. Az.
16 Jul -1.9 00:59:18 21° E 00:59:18 21° E 01:00:37 10° ENE visible
16 Jul -3.0 02:31:56 20° W 02:33:55 51° N 02:37:10 10° ENE visible
16 Jul -2.8 04:07:32 10° WNW 04:10:45 49° N 04:13:59 10° E visible
17 Jul -3.5 01:41:12 51° WNW 01:41:47 64° NNW 01:45:04 10° ENE visible
17 Jul -2.6 03:15:24 10° WNW 03:18:35 44° N 03:21:47 10° ENE visible
17 Jul -3.8 04:51:58 10° WNW 04:55:17 87° SSW 04:58:35 10° ESE visible
18 Jul -3.5 00:50:13 60° ENE 00:50:13 60° ENE 00:52:59 10° ENE visible
18 Jul -2.6 02:23:13 10° WNW 02:26:23 44° N 02:29:35 10° ENE visible
18 Jul -3.4 03:59:53 10° WNW 04:03:12 67° NNE 04:06:28 10° ESE visible
18 Jul-0.422:25:46E22:25:46E22:17:26Svisible
18 Jul -3.5 23:58:12 49° ESE 23:58:12 49° ESE 00:00:52 10° ENE visible
19 Jul -2.8 01:30:59 10° W 01:34:12 48° N 01:37:25 10° ENE visible
19 Jul -3.0 03:07:47 10° WNW 03:11:01 53° NNE 03:14:16 10° E visible
19 Jul -3.6 04:44:20 10° WNW 04:47:32 48° SSW 04:50:43 10° SE visible
19 Jul -3.4 23:02:30 10° SW 23:05:35 38° SSE 23:08:40 10° ENE visible
20 Jul -3.2 00:38:45 10° W 00:42:01 58° NNW 00:45:16 10° ENE visible
20 Jul -2.7 02:15:37 10° WNW 02:18:49 45° N 02:22:01 10° E visible
20 Jul -4.0 03:52:11 10° WNW 03:55:29 76° SSW 03:58:45 10° ESE visible
20 Jul -2.7 22:10:55 10° SSW 22:13:36 24° SE 22:16:19 10° E visible
20 Jul -3.7 23:46:34 10° WSW 23:49:51 78° NNW 23:53:09 10° ENE visible
21 Jul -2.6 01:23:25 10° WNW 01:26:35 43° N 01:29:46 10° ENE visible
21 Jul -3.7 03:00:03 10° WNW 03:03:21 75° NNE 03:06:39 10° ESE visible
21 Jul -2.7 04:36:51 10° W 04:39:37 25° SW 04:42:22 10° SSE visible
21 Jul -4.0 22:54:27 10° WSW 22:57:43 73° SSE 23:01:00 10° ENE visible
22 Jul -2.7 00:31:10 10° W 00:34:21 46° N 00:37:33 10° ENE visible
22 Jul -3.2 02:07:55 10° WNW 02:11:10 57° NNE 02:14:25 10° E visible
22 Jul -3.4 03:44:30 10° WNW 03:47:37 40° SSW 03:50:44 10° SE visible
22 Jul -3.6 22:02:29 10° SW 22:05:38 46° SSE 22:08:48 10° ENE visible
22 Jul -3.0 23:38:54 10° W 23:42:07 53° NNW 23:45:22 10° ENE visible
23 Jul -2.8 01:15:44 10° WNW 01:18:56 47° N 01:20:48 22° ENE visible
23 Jul -1.8 02:52:16 10° WNW 02:53:17 18° WNW 02:53:17 18° WNW visible
23 Jul -3.5 22:46:38 10° WSW 22:49:54 69° NNW 22:53:12 10° ENE visible
24 Jul -2.7 00:23:30 10° WNW 00:26:41 44° N 00:29:05 16° ENE visible
24 Jul -2.1 02:00:06 10° WNW 02:01:40 26° WNW 02:01:40 26° WNW visible
24 Jul -3.9 21:54:27 10° WSW 21:57:43 84° SSE 22:01:01 10° ENE visible
24 Jul -2.7 23:31:13 10° WNW 23:34:25 44° N 23:37:35 10° ENE visible
25 Jul -3.1 01:07:56 10° WNW 01:10:40 52° NNW 01:10:40 52° NNW visible
25 Jul -2.9 22:38:55 10° W 22:42:08 50° N 22:45:21 10° ENE visible
